User: anonymous   Login
Location: Unspecified
(0.0000°N, 0.0000°E)
Time: 09:11:18
(UTC+02:00)
Language:

JASON 3 - Orbit

View from above orbital plane
View from above orbital plane
View from above satellite
View from above satellite

Ground track
Ground track

The orbit data is extracted from the following two-line orbital elements,

1 41240U 16002A   20293.88369394 -.00000065 +00000-0 -18676-4 0  9991
2 41240 066.0386 106.6953 0007319 265.4580 094.5599 12.80930908222492
Epoch (UTC): 19 October 2020 21:12:31
Eccentricity: 0.0007319
inclination: 66.0386°
perigee height: 1332 km
apogee height: 1343 km
right ascension of ascending node: 106.6953°
argument of perigee: 265.4580°
revolutions per day: 12.80930908
mean anomaly at epoch: 94.5599°
orbit number at epoch: 22249

The dashed part of the orbit path shows where the satellite is in the earth's shadow,  

DLR